When you browse on this site, cookies collect data to enhance your experience and personalize the content and advertising you see.
Visit our Privacy Policy to learn more. By continuing to use the site, you agree to this use of cookies and data.
  • în România
  • Lista ţărilor
  • Pe 7 zile
  • Temperatura apei
  • Meteo pe hartă
  • Widget-uri
  • user-avatar
    Intrare

    Meteo pe oră la Arhus

    Astăzi, 17 Ianuarie, Vineri

    Timp Temperatura Precipitaţii Vânt Presiune Umiditate
    00:00 +3°C° 0 mm 7 m/s 762 mmHg 86%
    01:00 +3°C° 0 mm 6 m/s 761 mmHg 87%
    02:00 +3°C° 0 mm 7 m/s 761 mmHg 88%
    03:00 +3°C° 0 mm 7 m/s 760 mmHg 88%
    04:00 +3°C° 0 mm 7 m/s 760 mmHg 89%
    05:00 +3°C° 0 mm 7 m/s 760 mmHg 89%
    06:00 +3°C° 0 mm 7 m/s 759 mmHg 90%
    07:00 +3°C° 0 mm 6 m/s 759 mmHg 90%
    08:00 +3°C° 0 mm 6 m/s 759 mmHg 90%
    09:00 +3°C° 0 mm 6 m/s 758 mmHg 90%
    10:00 +3°C° 0 mm 6 m/s 758 mmHg 90%
    11:00 +4°C° 0 mm 6 m/s 758 mmHg 88%
    12:00 +4°C° 0 mm 6 m/s 757 mmHg 87%
    13:00 +5°C° 0 mm 6 m/s 757 mmHg 85%
    14:00 +5°C° 0 mm 6 m/s 757 mmHg 85%
    15:00 +6°C° 0 mm 5 m/s 756 mmHg 86%
    16:00 +6°C° 0 mm 5 m/s 756 mmHg 87%
    17:00 +6°C° 0 mm 5 m/s 756 mmHg 88%
    18:00 +6°C° 0 mm 5 m/s 755 mmHg 90%
    19:00 +6°C° 0 mm 5 m/s 755 mmHg 92%
    20:00 +6°C° 0.3 mm 5 m/s 755 mmHg 93%
    21:00 +5°C° 0.3 mm 4 m/s 755 mmHg 95%
    22:00 +5°C° 0.3 mm 4 m/s 754 mmHg 96%
    23:00 +6°C° 0.3 mm 4 m/s 754 mmHg 96%

    Mâine, 18 Ianuarie, Sâmbătă

    Timp Temperatura Precipitaţii Vânt Presiune Umiditate
    00:00 +6°C° 0.3 mm 5 m/s 754 mmHg 95%
    01:00 +6°C° 0.3 mm 5 m/s 754 mmHg 95%
    02:00 +6°C° 0.2 mm 5 m/s 754 mmHg 93%
    03:00 +5°C° 0.2 mm 6 m/s 753 mmHg 91%
    04:00 +5°C° 0.2 mm 6 m/s 753 mmHg 89%
    05:00 +4°C° 0 mm 6 m/s 753 mmHg 90%
    06:00 +4°C° 0 mm 6 m/s 754 mmHg 91%
    07:00 +3°C° 0 mm 6 m/s 754 mmHg 91%
    08:00 +3°C° 0.1 mm 6 m/s 754 mmHg 89%
    09:00 +3°C° 0.1 mm 6 m/s 755 mmHg 86%
    10:00 +3°C° 0.1 mm 7 m/s 755 mmHg 84%
    11:00 +4°C° 0.1 mm 7 m/s 756 mmHg 81%
    12:00 +4°C° 0.1 mm 7 m/s 756 mmHg 78%
    13:00 +4°C° 0.1 mm 7 m/s 757 mmHg 76%
    14:00 +4°C° 0 mm 7 m/s 757 mmHg 76%
    15:00 +4°C° 0 mm 7 m/s 757 mmHg 76%
    16:00 +4°C° 0 mm 7 m/s 757 mmHg 76%
    17:00 +4°C° 0 mm 7 m/s 758 mmHg 78%
    18:00 +4°C° 0 mm 7 m/s 758 mmHg 80%
    19:00 +3°C° 0 mm 7 m/s 759 mmHg 82%
    20:00 +3°C° 0 mm 7 m/s 760 mmHg 81%
    21:00 +3°C° 0 mm 7 m/s 760 mmHg 80%
    22:00 +3°C° 0 mm 6 m/s 761 mmHg 79%
    23:00 +3°C° 0 mm 6 m/s 761 mmHg 77%

    Poimâine, 19 Ianuarie, Duminică

    Timp Temperatura Precipitaţii Vânt Presiune Umiditate
    00:00 +2°C° 0 mm 7 m/s 762 mmHg 75%
    01:00 +2°C° 0 mm 7 m/s 763 mmHg 73%
    02:00 +2°C° 0 mm 7 m/s 763 mmHg 72%
    03:00 +2°C° 0 mm 7 m/s 764 mmHg 72%
    04:00 +2°C° 0 mm 7 m/s 764 mmHg 71%
    05:00 +2°C° 0 mm 7 m/s 765 mmHg 70%
    06:00 +1°C° 0 mm 6 m/s 766 mmHg 69%
    07:00 +1°C° 0 mm 6 m/s 766 mmHg 67%
    08:00 +1°C° 0 mm 6 m/s 767 mmHg 67%
    09:00 +1°C° 0 mm 6 m/s 768 mmHg 66%
    10:00 +1°C° 0 mm 6 m/s 769 mmHg 66%
    11:00 +2°C° 0 mm 6 m/s 770 mmHg 65%
    12:00 +3°C° 0 mm 5 m/s 771 mmHg 64%
    13:00 +3°C° 0 mm 5 m/s 771 mmHg 63%
    14:00 +3°C° 0 mm 5 m/s 772 mmHg 66%
    15:00 +4°C° 0 mm 4 m/s 773 mmHg 69%
    16:00 +3°C° 0 mm 4 m/s 773 mmHg 72%
    17:00 +3°C° 0 mm 3 m/s 774 mmHg 73%
    18:00 +2°C° 0 mm 3 m/s 775 mmHg 74%
    19:00 +3°C° 0 mm 2 m/s 776 mmHg 75%
    20:00 +3°C° 0 mm 2 m/s 776 mmHg 73%
    21:00 +2°C° 0 mm 2 m/s 777 mmHg 72%
    22:00 +2°C° 0 mm 2 m/s 777 mmHg 71%
    23:00 +2°C° 0 mm 2 m/s 778 mmHg 72%

    20 Ianuarie, Luni

    Timp Temperatura Precipitaţii Vânt Presiune Umiditate
    00:00 +2°C° 0 mm 2 m/s 778 mmHg 72%
    01:00 +1°C° 0 mm 3 m/s 778 mmHg 73%
    02:00 +1°C° 0 mm 3 m/s 778 mmHg 79%
    03:00 +1°C° 0 mm 3 m/s 779 mmHg 85%
    04:00 +1°C° 0 mm 3 m/s 779 mmHg 90%
    05:00 +1°C° 0 mm 4 m/s 779 mmHg 91%
    06:00 +1°C° 0 mm 4 m/s 779 mmHg 93%
    07:00 +1°C° 0 mm 5 m/s 779 mmHg 94%
    08:00 +1°C° 0 mm 5 m/s 779 mmHg 92%
    09:00 +2°C° 0 mm 5 m/s 779 mmHg 91%
    10:00 +2°C° 0 mm 5 m/s 779 mmHg 90%
    11:00 +3°C° 0 mm 5 m/s 780 mmHg 85%
    12:00 +3°C° 0 mm 6 m/s 780 mmHg 79%
    13:00 +4°C° 0 mm 6 m/s 780 mmHg 74%
    14:00 +4°C° 0 mm 6 m/s 779 mmHg 76%
    15:00 +3°C° 0 mm 6 m/s 779 mmHg 78%
    16:00 +3°C° 0 mm 6 m/s 779 mmHg 80%
    17:00 +3°C° 0 mm 6 m/s 779 mmHg 83%
    18:00 +2°C° 0 mm 6 m/s 779 mmHg 85%
    19:00 +2°C° 0 mm 6 m/s 779 mmHg 88%
    20:00 +2°C° 0 mm 6 m/s 779 mmHg 88%
    21:00 +2°C° 0 mm 6 m/s 779 mmHg 88%
    22:00 +2°C° 0 mm 6 m/s 779 mmHg 88%
    23:00 +2°C° 0 mm 6 m/s 778 mmHg 88%

    21 Ianuarie, Marţi

    Timp Temperatura Precipitaţii Vânt Presiune Umiditate
    00:00 +2°C° 0 mm 6 m/s 778 mmHg 88%
    01:00 +2°C° 0 mm 6 m/s 778 mmHg 87%
    02:00 +2°C° 0 mm 6 m/s 777 mmHg 86%
    03:00 +2°C° 0 mm 6 m/s 777 mmHg 86%
    04:00 +2°C° 0 mm 6 m/s 777 mmHg 85%
    05:00 +2°C° 0 mm 6 m/s 776 mmHg 84%
    06:00 +2°C° 0 mm 6 m/s 776 mmHg 82%
    07:00 +2°C° 0 mm 6 m/s 776 mmHg 81%
    08:00 +2°C° 0 mm 6 m/s 776 mmHg 81%
    09:00 +2°C° 0 mm 7 m/s 775 mmHg 82%
    10:00 +3°C° 0 mm 7 m/s 775 mmHg 83%
    11:00 +3°C° 0 mm 7 m/s 775 mmHg 82%
    12:00 +4°C° 0 mm 7 m/s 775 mmHg 81%
    13:00 +4°C° 0 mm 7 m/s 775 mmHg 81%
    14:00 +4°C° 0 mm 7 m/s 774 mmHg 83%
    15:00 +4°C° 0 mm 6 m/s 774 mmHg 85%
    16:00 +4°C° 0 mm 6 m/s 774 mmHg 87%
    17:00 +3°C° 0 mm 6 m/s 773 mmHg 88%
    18:00 +3°C° 0 mm 6 m/s 773 mmHg 90%
    19:00 +3°C° 0 mm 6 m/s 773 mmHg 91%
    20:00 +3°C° 0 mm 6 m/s 773 mmHg 92%
    21:00 +4°C° 0 mm 6 m/s 772 mmHg 93%
    22:00 +4°C° 0 mm 6 m/s 772 mmHg 94%
    23:00 +4°C° 0 mm 7 m/s 772 mmHg 90%

    22 Ianuarie, Miercuri

    Timp Temperatura Precipitaţii Vânt Presiune Umiditate
    00:00 +3°C° 0 mm 7 m/s 772 mmHg 87%
    01:00 +3°C° 0 mm 7 m/s 772 mmHg 83%
    02:00 +3°C° 0 mm 7 m/s 772 mmHg 82%
    03:00 +2°C° 0 mm 7 m/s 772 mmHg 80%
    04:00 +2°C° 0 mm 6 m/s 771 mmHg 79%
    05:00 +2°C° 0 mm 6 m/s 771 mmHg 79%
    06:00 +2°C° 0 mm 6 m/s 771 mmHg 79%
    07:00 +2°C° 0 mm 6 m/s 770 mmHg 79%
    08:00 +2°C° 0 mm 6 m/s 770 mmHg 80%
    09:00 +2°C° 0 mm 6 m/s 770 mmHg 80%
    10:00 +2°C° 0 mm 6 m/s 770 mmHg 80%
    11:00 +3°C° 0 mm 6 m/s 770 mmHg 78%
    12:00 +3°C° 0 mm 7 m/s 770 mmHg 76%
    13:00 +4°C° 0 mm 7 m/s 770 mmHg 74%
    14:00 +3°C° 0 mm 7 m/s 770 mmHg 75%
    15:00 +3°C° 0 mm 6 m/s 769 mmHg 76%
    16:00 +3°C° 0 mm 6 m/s 769 mmHg 77%
    17:00 +2°C° 0 mm 6 m/s 769 mmHg 79%
    18:00 +2°C° 0 mm 6 m/s 769 mmHg 81%
    19:00 +2°C° 0 mm 6 m/s 768 mmHg 83%
    20:00 +2°C° 0 mm 6 m/s 768 mmHg 86%
    21:00 +2°C° 0 mm 6 m/s 768 mmHg 88%
    22:00 +2°C° 0 mm 6 m/s 768 mmHg 91%
    23:00 +3°C° 0 mm 6 m/s 767 mmHg 91%
    Arată mai mult